| time (UTC) | temp F | wind direction | speed MPH | gust MPH | rain 1hr in | rain 24hr in | rain mn in | humidity % | barometer mb |
| 20260502140115 | 88 | 189 | 0.0 | 0.0 | 0.00 | 0.00 | 0.00 | 13 | 1018.0 |
| 20260502130115 | 87 | 196 | 0.0 | 0.0 | 0.00 | 0.00 | 0.00 | 18 | 1019.0 |
| 20260502123115 | 86 | 221 | 0.0 | 0.0 | 0.00 | 0.00 | 0.00 | 18 | 1019.0 |
| 20260502121615 | 86 | 243 | 0.0 | 0.0 | 0.00 | 0.00 | 0.00 | 18 | 1019.0 |
| 20260502120115 | 85 | 188 | 0.0 | 0.0 | 0.00 | 0.00 | 0.00 | 19 | 1019.0 |
| 20260502114615 | 85 | 220 | 0.0 | 0.0 | 0.00 | 0.00 | 0.00 | 19 | 1020.0 |
| 20260502113115 | 83 | 218 | 0.0 | 0.0 | 0.00 | 0.00 | 0.00 | 19 | 1020.0 |
| 20260502111614 | 83 | 268 | 0.0 | 0.0 | 0.00 | 0.00 | 0.00 | 19 | 1020.0 |
| 20260502110115 | 83 | 242 | 1.0 | 0.0 | 0.00 | 0.00 | 0.00 | 19 | 1020.0 |
| 20260502104615 | 82 | 95 | 0.0 | 0.0 | 0.00 | 0.00 | 0.00 | 19 | 1020.0 |
| 20260502103115 | 82 | 270 | 0.0 | 0.0 | 0.00 | 0.00 | 0.00 | 20 | 1021.0 |
| 20260502101615 | 81 | 217 | 0.0 | 0.0 | 0.00 | 0.00 | 0.00 | 20 | 1021.0 |
| 20260502100115 | 80 | 215 | 0.0 | 0.0 | 0.00 | 0.00 | 0.00 | 20 | 1021.0 |
| 20260502090115 | 76 | 251 | 0.0 | 0.0 | 0.00 | 0.00 | 0.00 | 23 | 1022.0 |
| 20260502070114 | 63 | 159 | 0.0 | 0.0 | 0.00 | 0.00 | 0.00 | 33 | 1022.0 |
| 20260502064614 | 61 | 144 | 0.0 | 0.0 | 0.00 | 0.00 | 0.00 | 34 | 1022.0 |
| 20260502063115 | 59 | 123 | 0.0 | 0.0 | 0.00 | 0.00 | 0.00 | 37 | 1022.0 |
| 20260502061615 | 57 | 148 | 0.0 | 0.0 | 0.00 | 0.00 | 0.00 | 38 | 1022.0 |
| 20260502060114 | 56 | 174 | 0.0 | 0.0 | 0.00 | 0.00 | 0.00 | 41 | 1022.0 |
| 20260502054614 | 54 | 160 | 0.0 | 0.0 | 0.00 | 0.00 | 0.00 | 41 | 1022.0 |
| 20260502053114 | 53 | 131 | 0.0 | 0.0 | 0.00 | 0.00 | 0.00 | 41 | 1022.0 |
| 20260502051614 | 54 | 105 | 0.0 | 0.0 | 0.00 | 0.00 | 0.00 | 39 | 1022.0 |
| 20260502050115 | 54 | 181 | 0.0 | 0.0 | 0.00 | 0.00 | 0.00 | 39 | 1022.0 |
| 20260502044614 | 53 | 121 | 0.0 | 0.0 | 0.00 | 0.00 | 0.00 | 39 | 1022.0 |
| 20260502043115 | 53 | 117 | 0.0 | 0.0 | 0.00 | 0.00 | 0.00 | 40 | 1022.0 |
| 20260502041614 | 52 | 103 | 0.0 | 0.0 | 0.00 | 0.00 | 0.00 | 40 | 1022.0 |
| 20260502040114 | 53 | 115 | 0.0 | 0.0 | 0.00 | 0.00 | 0.00 | 39 | 1022.0 |
| 20260502034614 | 53 | 127 | 0.0 | 0.0 | 0.00 | 0.00 | 0.00 | 39 | 1021.0 |
| 20260502033114 | 53 | 153 | 0.0 | 0.0 | 0.00 | 0.00 | 0.00 | 39 | 1022.0 |
| 20260502031614 | 53 | 113 | 0.0 | 0.0 | 0.00 | 0.00 | 0.00 | 39 | 1022.0 |
| 20260502030114 | 53 | 126 | 0.0 | 0.0 | 0.00 | 0.00 | 0.00 | 40 | 1022.0 |
| 20260502024614 | 52 | 124 | 0.0 | 0.0 | 0.00 | 0.00 | 0.00 | 40 | 1022.0 |
| 20260502023114 | 53 | 165 | 0.0 | 0.0 | 0.00 | 0.00 | 0.00 | 39 | 1022.0 |
| 20260502021614 | 53 | 145 | 1.0 | 0.0 | 0.00 | 0.00 | 0.00 | 38 | 1022.0 |
| 20260502020114 | 53 | 169 | 0.0 | 0.0 | 0.00 | 0.00 | 0.00 | 38 | 1022.0 |
| 20260502014614 | 54 | 127 | 2.0 | 0.0 | 0.00 | 0.00 | 0.00 | 37 | 1022.0 |
| 20260502013114 | 54 | 127 | 0.0 | 0.0 | 0.00 | 0.00 | 0.00 | 38 | 1022.0 |
| 20260502011614 | 53 | 328 | 2.0 | 0.0 | 0.00 | 0.00 | 0.00 | 39 | 1022.0 |
| 20260502010114 | 55 | 206 | 0.0 | 0.0 | 0.00 | 0.00 | 0.00 | 37 | 1021.0 |
| 20260502004614 | 55 | 212 | 1.0 | 0.0 | 0.00 | 0.00 | 0.00 | 37 | 1022.0 |
| 20260502003114 | 53 | 181 | 0.0 | 0.0 | 0.00 | 0.00 | 0.00 | 40 | 1022.0 |
| 20260502001614 | 54 | 216 | 0.0 | 0.0 | 0.00 | 0.00 | 0.00 | 38 | 1022.0 |
| 20260502000114 | 54 | 194 | 0.0 | 0.0 | 0.00 | 0.00 | 0.00 | 38 | 1022.0 |
| 20260501234614 | 55 | 171 | 1.0 | 0.0 | 0.00 | 0.00 | 0.00 | 37 | 1022.0 |
| 20260501233114 | 58 | 174 | 0.0 | 0.0 | 0.00 | 0.00 | 0.00 | 32 | 1022.0 |
| 20260501231614 | 58 | 155 | 0.0 | 0.0 | 0.00 | 0.00 | 0.00 | 32 | 1022.0 |
| 20260501230114 | 57 | 98 | 2.0 | 0.0 | 0.00 | 0.00 | 0.00 | 33 | 1022.0 |
| 20260501224614 | 57 | 122 | 1.0 | 0.0 | 0.00 | 0.00 | 0.00 | 35 | 1022.0 |
| 20260501223114 | 57 | 134 | 2.0 | 0.0 | 0.00 | 0.00 | 0.00 | 35 | 1022.0 |
| 20260501221614 | 57 | 98 | 0.0 | 0.0 | 0.00 | 0.00 | 0.00 | 36 | 1022.0 |
| 20260501220114 | 58 | 173 | 0.0 | 0.0 | 0.00 | 0.00 | 0.00 | 35 | 1022.0 |
| 20260501214614 | 59 | 142 | 0.0 | 0.0 | 0.00 | 0.00 | 0.00 | 34 | 1022.0 |
| 20260501213114 | 59 | 173 | 0.0 | 0.0 | 0.00 | 0.00 | 0.00 | 34 | 1022.0 |
| 20260501211614 | 59 | 73 | 0.0 | 0.0 | 0.00 | 0.00 | 0.00 | 34 | 1022.0 |
| 20260501210114 | 59 | 130 | 0.0 | 0.0 | 0.00 | 0.00 | 0.00 | 34 | 1022.0 |
| 20260501204614 | 60 | 165 | 2.0 | 0.0 | 0.00 | 0.00 | 0.00 | 33 | 1022.0 |
| 20260501203114 | 61 | 146 | 2.0 | 0.0 | 0.00 | 0.00 | 0.00 | 32 | 1022.0 |
| 20260501201614 | 62 | 105 | 2.0 | 0.0 | 0.00 | 0.00 | 0.00 | 29 | 1022.0 |
| 20260501200114 | 62 | 155 | 0.0 | 0.0 | 0.00 | 0.00 | 0.00 | 28 | 1022.0 |
| 20260501194614 | 63 | 116 | 0.0 | 0.0 | 0.00 | 0.00 | 0.00 | 28 | 1022.0 |
| 20260501193114 | 64 | 88 | 0.0 | 0.0 | 0.00 | 0.00 | 0.00 | 26 | 1022.0 |
| 20260501191614 | 65 | 138 | 0.0 | 0.0 | 0.00 | 0.00 | 0.00 | 25 | 1022.0 |
| 20260501190114 | 66 | 137 | 0.0 | 0.0 | 0.00 | 0.00 | 0.00 | 22 | 1022.0 |
| 20260501184614 | 68 | 57 | 0.0 | 0.0 | 0.00 | 0.00 | 0.00 | 15 | 1021.0 |
| 20260501183114 | 68 | 17 | 0.0 | 0.0 | 0.00 | 0.00 | 0.00 | 12 | 1021.0 |
| 20260501181614 | 69 | 0 | 0.0 | 0.0 | 0.00 | 0.00 | 0.00 | 14 | 1021.0 |
| 20260501180114 | 69 | 0 | 0.0 | 0.0 | 0.00 | 0.00 | 0.00 | 12 | 1021.0 |
| 20260501174616 | 70 | 323 | 0.0 | 0.0 | 0.00 | 0.00 | 0.00 | 12 | 1021.0 |
| 20260501173114 | 71 | 311 | 0.0 | 0.0 | 0.00 | 0.00 | 0.00 | 11 | 1021.0 |
| 20260501171614 | 71 | 326 | 0.0 | 0.0 | 0.00 | 0.00 | 0.00 | 11 | 1021.0 |
| 20260501170114 | 71 | 318 | 0.0 | 0.0 | 0.00 | 0.00 | 0.00 | 11 | 1021.0 |
| 20260501164614 | 72 | 310 | 0.0 | 0.0 | 0.00 | 0.00 | 0.00 | 11 | 1021.0 |
| 20260501163114 | 72 | 316 | 0.0 | 0.0 | 0.00 | 0.00 | 0.00 | 13 | 1021.0 |
| 20260501161614 | 72 | 319 | 0.0 | 0.0 | 0.00 | 0.00 | 0.00 | 13 | 1021.0 |
| 20260501160114 | 73 | 315 | 0.0 | 0.0 | 0.00 | 0.00 | 0.00 | 11 | 1021.0 |
| 20260501154614 | 73 | 317 | 0.0 | 0.0 | 0.00 | 0.00 | 0.00 | 11 | 1021.0 |
| 20260501153115 | 74 | 9 | 0.0 | 0.0 | 0.00 | 0.00 | 0.00 | 13 | 1022.0 |
| 20260501151614 | 75 | 16 | 0.0 | 0.0 | 0.00 | 0.00 | 0.00 | 13 | 1022.0 |
| 20260501150114 | 75 | 8 | 0.0 | 0.0 | 0.00 | 0.00 | 0.00 | 13 | 1022.0 |